STARLINK-31211, 59031

Orbit data source: Space-Track

STARLINK-31211, 59031 is a payload satellite owned by SpaceX/Seattle (US) in LEO that was launched on Sun, 25 Feb 2024 UTC via an FALCON 9 launch vehicle from the Air Force Eastern Test Range (AFETR). Payload-class satellites include a variety of spacecraft equipped with specific instruments for various scientific and technological missions. These include communications satellites like Starlink; space stations such as the ISS; scientific satellites like the Hubble; Earth observation satellites from companies like Planet Labs, Umbra, and HawkEye 360; GPS; miniature CubeSats for education and research; and military/defense satellites.

Loading next visibility...
Identifier
59031, 2024-038J
Orbit
LEO
Country
Flag of USUS
Related business
Manufacturer
SpaceX/Seattle
Mission
Operational Commercial Communications
Bus & Motor
STARLINK V2M, Unknown motor
Mass
730 kg wet, ~700 kg dry
Launch date (UTC)
2024-02-25 (2 years ago)
Launch vehicle
FALCON 9
Launch site
Air Force Eastern Test Range (AFETR)
Object type
Payload
Rocket body
Debris
Shape & HBR
Box + 2 Pan, 17.7 m
Radar Cross Section
33.884 m², Large (>1 m²)

Expand to show TLE details & history
Last TLE update: 2 days ago

TLE from 2 days ago
0 STARLINK-31211
1 59031U 24038J   26171.03465790  .00000411  00000-0  24465-4 0  9997
2 59031  43.0012 168.7580 0001066 274.3776  85.6954 15.27576424130301
Epoch: 2026-06-20T00:49Z
TLE epoch observation values (Epoch: 2026-06-20T00:49:54.442Z)
Latitude
-0.00001°
Longitude
-111.97393°
Altitude
482.781 km
Speed
7.626 km/s
True Right ascension
11h 15m 01s
True Declination
0° 00' 00"
Sunlit
Object was in daylight at epoch
Visualization orbit readout
Latitude
Unknown
Longitude
Unknown
Altitude
Unknown
Speed
Unknown
Apparent Right ascension
Unknown
Apparent Declination
Unknown
Sunlit
N/A
Visualization observer readout
Local Sidereal Time
21:37:08
Azimuth
Unknown
Elevation
Unknown
Doppler factor
Unknown
Orbital elements
Apogee altitude
485.736 km
Perigee altitude
484.273 km
Semi-major axis
6,863.142 km
Eccentricity
0.00011
Inclination
43.0012°
RAAN
168.758°
Arg. of periapsis
274.3776°
True anomaly
85.70758°
Mean anomaly
85.6954°
Eccentric anomaly
85.70149°
Mean motion
3.81732 °/min
Orbital period
94.31 mins
BSTAR
0.000024465
Loading maneuver chart data...
Computing Atmospheric mass density...
Loading historical data...
Loading historical data...
Loading historical data...
Loading historical data...
Loading historical data...
Loading historical data...
Loading historical data...

Documentation

Showing up to 5 results
|